Погода в Боголюбовке

Россия / Приморский край     45°29′46″N   134°26′47″E
темп.,
°C
ветер,
м/с
пор.,
м/с
влажн.,
%
обл.,
%
осадки,
мм/ч
давл.,
гПа
погр.,
м
15 апреля, чт
чт1501:00−3ю2275100 0.0 101241
04:00−3ююз116990 0.0 101316
07:00−3ю12655 0.0 101573
10:00+4з36309 0.0 10151529
13:00+8з36285 0.0 10141937
16:00+10зюз46294 0.0 10132146
19:00+7вюв22455 0.0 101311
22:00+2юв2362100 0.0 101538
16 апреля, пт
пт1601:00+3юв2363100 0.0 101548
04:00+3юв2360100 0.0 101560
07:00+3юв2359100 0.0 101452
10:00+11ю483557 0.0 10141189
13:00+14ю61035100 0.0 10122109
16:00+12ююв61234100 0.0 10111626
19:00+7юв51361100 0.0 10111041
22:00+7юв6146794 0.0 1009994
17 апреля, сб
сб1701:00+6юв51276100 0.1 1007932
04:00+7ююв3106993 0.1 1006880
07:00+5ю31089100 0.4 1008937
10:00+10юз58526 0.4 10091493
13:00+13юз4732100 0.0 10092779
16:00+14з373043 0.0 10082653
19:00+12с11398 0.0 100716
22:00+8ссв115469 0.0 100917
18 апреля, вс
вс1801:00+5св116813 0.0 100810
04:00+4ссв2279100 0.0 100740
07:00+3с2693100 0.0 1007244
10:00+7с4768100 0.0 1007656
13:00+12с6946100 0.0 10041602
16:00+13ссз693930 0.0 10022204
19:00+12ссз6114674 0.0 10031356
22:00+8ссз395815 0.0 1005300
19 апреля, пн
пн1901:00+5сз11752 0.0 100610
04:00+3з11810 0.0 100610
07:00+3зюз00813 0.0 100812
10:00+11ссз48471 0.0 10071178
13:00+15ссз58355 0.0 10071939
16:00+16ссз58315 0.0 10062033
19:00+14ссз37395 0.0 1007283
22:00+9с11575 0.0 101010